www.pogodaiklimat.ru

Погода и климат >> Архив погоды >> Россия >> Хакасия >> Первомайское


ПОГОДА в Первомайском

  • Прогноз погоды в Первомайском
  • Монитор погоды в Первомайском

АРХИВ ПОГОДЫ в Первомайском

Время (UTC), дата Ветер
(напр.,м/с)
 
Видим.   Явления Облачность Т
(С)
Тd
(С)
f
(%)
Тe
(С)
Тes
(С)
Комфортность P
(гПа)
Po
(гПа)
Тmin
(С)
Tmax
(С)
R
(мм)
R24
(мм)
S
(см)
21 9.06 ЮЗ 1 20 км 10 баллов +11.3 +10.7 96 +11 +11 1007.2 974.7
00 10.06 З 1 20 км 10/5 1000 м
[Sc Ac As]
+14.5 +12.8 90 +15 +15 1006.8 974.8 +10.8 0.0
03 10.06 З 3 20 км 10 баллов +18.4 +12.6 69 +19 +19 1007.7 976.0
06 10.06 З 5 20 км 10 баллов +20.8 +10.0 50 +22 +22 комфорт 1007.5 976.0
09 10.06 СВ 4 20 км осадки на расстоянии 10 баллов +20.6 +10.7 53 +22 +22 комфорт 1006.1 974.7
12 10.06 ЮВ 2 20 км {ливн. осадки} 9/6 600 м
[Cb cap Ci sp]
+19.0 +13.8 72 +21 +21 комфорт 1006.4 974.9 +22.5 1
15 10.06 З 2 20 км 9 баллов +16.6 +12.7 78 +17 +17 1009.2 977.3
18 10.06 штиль 0 н/о 7 баллов +14.9 +10.3 74 +15 +15 1010.9 978.7
21 10.06 З 3 20 км 4 балла +11.3 +9.7 90 +9 +9 1012.7 980.0
00 11.06 Ю 1 20 км 9/5 1000 м
[Sc diur, vesp Ac As Ci fib]
+13.7 +12.3 91 +14 +15 1011.8 979.5 +10.2 0.0
03 11.06 З 9 20 км 10 баллов +20.9 +10.7 52 +22 +22 комфорт 1012.9 981.3
06 11.06 З 6 20 км 10 баллов +20.0 +9.8 52 +21 +21 комфорт 1013.0 981.3
09 11.06 СЗ 4 20 км 10 баллов +19.3 +10.8 58 +20 +20 1014.5 982.7
12 11.06 СЗ 4
{10}
20 км {ливн. осадки} 10/10 600 м
[Cb cap]
+20.4 +10.9 54 +22 +22 комфорт 1014.0 982.4 +21.4 0.0
15 11.06 ЮЗ 2 20 км 7 баллов +14.8 +11.0 78 +15 +15 1016.4 984.0
18 11.06 ЮЗ 1 н/о 7 баллов +12.0 +9.7 86 +12 +12 1016.7 984.0
21 11.06 З 1 20 км 9 баллов +9.4 +8.9 97 +9 +9 1017.0 984.0
00 12.06 штиль 0 20 км 3/3 1000 м
[Sc]
+15.3 +11.4 78 +15 +17 1014.5 982.4 +8.8
03 12.06 Ю 4 20 км 2 балла +21.6 +11.6 53 +24 +30 комфорт 1012.8 981.3
06 12.06 Ю 4 20 км 6 баллов +23.6 +11.9 48 +25 +30 комфорт 1011.3 980.0
09 12.06 Ю 1 20 км 6 баллов +26.7 +11.2 38 +28 +33 жарко 1008.2 977.3
12 12.06 н/о +12.4 1005.8 975.8 +26.8
15 12.06 штиль 0 20 км 7 баллов +19.8 +11.8 60 +21 +21 комфорт 1007.6 976.0
18 12.06 ЮЗ 1 н/о 7 баллов +12.5 +11.4 93 +12 +12 1008.4 976.0
21 12.06 Ю 2 20 км 9 баллов +11.7 +10.8 94 +10 +10 1008.5 976.0
00 13.06 Ю 1 20 км 10/6 600 м
[Cb cap Ac trans Ci fib]
+15.1 +12.8 86 +16 +16 1007.7 975.7 +11.1
03 13.06 ЮЗ 2 20 км 10 баллов +21.4 +14.5 65 +24 +24 комфорт 1007.4 976.0
06 13.06 ЮЗ 4 20 км 9 баллов +25.4 +10.8 40 +26 +28 жарко 1005.6 974.7
09 13.06 В 4 20 км гроза без осадков 9 баллов +22.3 +15.9 67 +26 +27 жарко 1004.5 973.3
12 13.06 Ю 6-10
{11}
20 км {гроза, ливн. осадки} 3/3 1000 м
[Sc]
+25.3 +12.5 45 +27 +28 жарко 1001.8 971.1 +26.4 4
15 13.06 Ю 6 20 км 2 балла +21.5 +12.1 55 +24 +24 комфорт 1003.2 972.0
18 13.06 штиль 0 н/о 1 балл +14.6 +11.9 84 +14 +14 1004.0 972.0
21 13.06 З 2 20 км 2 балла +9.4 +8.9 97 +8 +8 1004.6 972.0
00 14.06 З 1 20 км 3/1 600 м
[Cu hum Ac trans Ci sp]
+16.2 +12.6 79 +17 +19 1002.9 971.2 +0.9
03 14.06 Ю 5 20 км 6 баллов +24.1 +14.5 55 +27 +29 жарко 1001.6 970.7
06 14.06 З 5 20 км 9 баллов +26.0 +12.4 43 +28 +29 жарко 1001.4 970.7
09 14.06 З 5 20 км 6 баллов +27.2 +11.6 38 +28 +31 жарко 1001.3 970.7
12 14.06 С 3
{10}
20 км 10/5 600 м
[Cb cap Ac trans Ci fib]
+24.7 +13.6 50 +27 +27 жарко 1001.8 971.1 +27.6
15 14.06 З 2 20 км 10 баллов +19.7 +15.8 78 +22 +22 комфорт 1004.7 973.3
18 14.06 В 1 н/о 7 баллов +14.8 +13.5 92 +15 +15 1005.3 973.3
21 14.06 З 1 20 км 4 балла +10.5 +10.0 97 +10 +10 1005.8 973.3
00 15.06 ЮЗ 2 20 км 10/8 1000 м
[Sc diur, vesp Ac As]
+15.4 +14.5 94 +15 +15 1004.7 972.9 +10.5 0.0
03 15.06 В 1 20 км 7 баллов +21.8 +16.5 72 +26 +30 душно 1004.5 973.3
06 15.06 Ю 2 20 км 10 баллов +25.8 +15.5 53 +29 +29 душно 1002.7 972.0
09 15.06 СВ 6 20 км в посл. час гроза 10 баллов +22.2 +16.2 69 +26 +26 душно 1004.5 973.3
12 15.06 С 5 20 км {гроза, ливн. осадки} 10/3 600 м
[Cb cap Ac trans Ci fib]
+20.0 +14.9 72 +22 +23 комфорт 1004.9 973.5 5
15 15.06 СЗ 1 20 км 10 баллов +15.8 +13.5 86 +16 +16 1008.0 976.0
18 15.06 З 2 н/о 10 баллов +14.4 +13.4 94 +14 +14 1006.8 974.7
21 15.06 В 1 20 км 10 баллов +14.6 +13.6 94 +15 +15 1005.3 973.3
00 16.06 В 2 10 км 10/10 600 м
[St]
+15.4 +13.9 91 +15 +15 1003.7 972.0 +14.3
03 16.06 штиль 0 20 км 9 баллов +19.8 +16.2 80 +22 +23 комфорт 1003.4 972.0
06 16.06 ЮВ 3 20 км 9 баллов +24.5 +17.0 63 +28 +30 душно 1001.5 970.7
09 16.06 В 5 20 км 10 баллов +25.3 +16.2 57 +29 +29 душно 1001.4 970.7
12 16.06 ЮВ 3 20 км 9/6 600 м
[Cu Sc Ac cast Ci sp]
+25.8 +14.6 50 +28 +29 жарко 999.6 969.0 +26.5
15 16.06 ЮЗ 6 20 км гроза без осадков 10 баллов +17.9 +13.4 75 +17 +17 1005.0 973.3

 

Местоположение метеостанции Первомайское (Хакасия, Россия): широта 54.58 долгота 90.87 высота над уровнем моря 275 м.

В архиве по умолчанию представлена погода в Первомайском за последнюю неделю. Архивные данные за месяц целиком и за предыдущие месяцы, начиная с января 2011 года, Вы можете получить, выбрав интересующий диапазон дат из раскрывающегося списка и нажав кнопку "Ввод!".


*Определитесь, кто Вы:
робот инопланетянин человек

Внимание! Время в таблицах - всемирное. Для получения местного времени необходимо прибавить поправку, которая равна 7 ч.

Смотрите также архив погоды в соседних городах и на ближайших метеорологических станциях:

Погода в Светлолобово (Красноярский край, Россия) (58 км)
Погода в Шире (Хакасия, Россия) (61 км)
Погода в Лебяжьем (Красноярский край, Россия) (62 км)
Погода в Копьево-2 (Хакасия, Россия) (82 км)
Погода в Идринском (Красноярский край, Россия) (85 км)
Погода в Хакасской (Хакасия, Россия) (95 км)
Погода в Уйбате (Хакасия, Россия) (101 км)
Погода в Балахте (Красноярский край, Россия) (103 км)
Погода в Ужуре (Красноярский край, Россия) (104 км)
Погода в Коммунаре (Хакасия, Россия) (107 км)

Пояснения к столбцам:

Ветер - указаны скорость ветра в м/с - средняя за 10 мин, порывы в срок и между сроками (в фигурных скобках) и направление, откуда дует ветер: С - северный, СВ - северо-восточный, В - восточный, ЮВ - юго-восточный, Ю - южный, ЮЗ - юго-западный, З - западный, СЗ - северо-западный.
Видимость - горизонтальная дальность видимости в метрах или километрах. При видимости от 1 до 10 км при отсутствии осадков обычно наблюдается дымка, при ухудшении видимости до 1 км и менее - туман. В сухую погоду видимость может ухудшаться дымом, пылью или мглою.
Явления - указаны атмосферные явления, наблюдавшиеся в срок или в последний час перед сроком; фигурными скобками обозначены явления, наблюдавшиеся между сроками (за 1-3 часа до срока); квадратными скобками обозначены град или гололедные отложения с указанием их диаметра в мм.
Облачность - указаны через наклонную черту общая и нижняя облачность в баллах и высота нижней границы облаков в метрах; квадратными скобками обозначены формы облаков: Ci - перистые, Cs - перисто-слоистые, Cc - перисто-кучевые, Ac - высококучевые, As - высокослоистые, Sc - слоисто-кучевые, Ns - слоисто-дождевые, Cu - кучевые, Cb - кучево-дождевые. Подробнее классификацию облаков см. в Атласе облаков (PDF).
T - Температура воздуха - температура, измеренная на высоте 2 м над землей.
Td - Температура точки росы - температура, при понижении до которой содержащийся в воздухе водяной пар достигнет насыщения.
f - Относительная влажность воздуха - влажноcть воздуха, измеренная на высоте 2 м над землей.
Te - Эффективная температура - температура, которую ощущает одетый по сезону человек в тени. Характеристика душности погоды. При расчете учитывается влияние влажности воздуха и скорости ветра на теплоощущения человека.
Tes - Эффективная температура на солнце - температура, которую ощущает человек, с поправкой на солнечный нагрев. Характеристика знойности погоды. Зависит от высоты солнца над горизонтом, облачности и скорости ветра. Ночью, в пасмурную погоду, а также при ветре 12 м/с и более поправка равна нулю.
P - Атмосферное давление - приведенное к уровню моря атмосферное давление.
Po - Атмосферное давление - измеренное на уровне метеостанции атмосферное давление.
Tmin - Минимальная температура - минимум температуры воздуха на высоте 2 м над землей.
Tmax - Максимальная температура - максимум температуры воздуха на высоте 2 м над землей.
R - Количество осадков - Количество выпавших осадков за период времени, мм. При наведении курсора мыши на число - период времени, за который выпало указанное количество осадков.
R24 - Количество осадков - Количество выпавших осадков за 24 часа, мм.
S - Снежный покров - Высота снежного покрова, см. При наведении курсора мыши на число - состояние снежного покрова и степень покрытия местности в баллах.